Weather History for Branson, MO

Change the Weather History Date:

Thursday, February 7, 2013

  Actual Average (KHRO) Record (KHRO)
Temperature  
Mean Temperature 49 °F 39 °F  
Max Temperature 57 °F 49 °F 77 °F (1930)
Min Temperature 41 °F 29 °F 0 °F (1906)
Degree Days  
Heating Degree Days 16 26  
Month to date heating degree days 187  
Since 1 July heating degree days 2673  
Cooling Degree Days 0 0  
Month to date cooling degree days 0  
Year to date cooling degree days 0  
Moisture  
Dew Point 43 °F    
Average Humidity 90    
Maximum Humidity 100    
Minimum Humidity 67    
Precipitation  
Precipitation 0.00 in 0.09 in 1.84 in (1900)
Month to date precipitation 0.61  
Year to date precipitation 3.17  
Snow  
Snow 0.00 in 0.10 in 5.50 in (1921)
Month to date snowfall 1.1  
Since 1 July snowfall 7.1  
Snow Depth -    
Sea Level Pressure  
Sea Level Pressure 29.97 in    
Wind  
Wind Speed 8 mph (ENE)    
Max Wind Speed 16 mph    
Max Gust Speed 23 mph    
Visibility 7 miles    
Events Fog , Rain    
T = Trace of Precipitation, MM = Missing Value Source: NWS Daily Summary

Daily Weather History Graph

Daily Weather History Graph

Search for Another Location

Airport:

Trip Planner

Search our weather history database for the weather conditions in past years. The results will help you decide how hot, cold, wet, or windy it might be!

Date:

Astronomy

Feb. 07, 2013 Rise Set
Actual Time 7:08 AM CST 5:45 PM CST
Civil Twilight 6:42 AM CST 6:12 PM CST
Nautical Twilight 6:11 AM CST 6:42 PM CST
Astronomical Twilight 5:41 AM CST 7:13 PM CST
Moon 4:46 AM CST (2/7) 3:12 PM CST (2/7)
Length of Visible Light 11h 30m
Length of Day
10h 36m
Waning Crescent, 9% of the Moon is Illuminated
Feb 7
Waning Crescent
Feb 10
New
Feb 17
First Quarter
Feb 25
Full
Mar 4
Last Quarter

Hourly Weather History & Observations

Time (CST) Temp. Windchill Dew Point Humidity Pressure Visibility Wind Dir Wind Speed Gust Speed Precip Events Conditions
12:15 AM 41.0 °F 34.7 °F 37.4 °F 87% 30.00 in 10.0 mi ESE 10.4 mph - N/A   Clear
12:35 AM 41.0 °F 37.1 °F 37.4 °F 87% 30.00 in 10.0 mi SE 5.8 mph - N/A   Clear
12:55 AM 41.0 °F 35.8 °F 37.4 °F 87% 29.99 in 10.0 mi SE 8.1 mph - N/A   Clear
1:15 AM 41.0 °F 35.8 °F 37.4 °F 87% 29.98 in 10.0 mi SE 8.1 mph - N/A   Clear
1:35 AM 41.0 °F 39.0 °F 37.4 °F 87% 29.99 in 10.0 mi SSE 3.5 mph - N/A   Clear
1:55 AM 41.0 °F 35.8 °F 39.2 °F 93% 29.97 in 8.0 mi ESE 8.1 mph - N/A   Clear
2:15 AM 41.0 °F 35.8 °F 39.2 °F 93% 29.97 in 8.0 mi ESE 8.1 mph - N/A   Clear
2:35 AM 41.0 °F 35.8 °F 39.2 °F 93% 29.97 in 8.0 mi SE 8.1 mph - N/A   Clear
2:55 AM 42.8 °F 38.0 °F 39.2 °F 87% 29.96 in 8.0 mi ESE 8.1 mph - N/A   Mostly Cloudy
3:15 AM 42.8 °F 38.6 °F 39.2 °F 87% 29.95 in 8.0 mi ESE 6.9 mph - N/A   Overcast
3:35 AM 42.8 °F 39.3 °F 39.2 °F 87% 29.95 in 8.0 mi SE 5.8 mph - N/A   Mostly Cloudy
3:55 AM 42.8 °F 38.6 °F 39.2 °F 87% 29.94 in 8.0 mi SE 6.9 mph - N/A   Overcast
4:15 AM 42.8 °F 38.6 °F 39.2 °F 87% 29.93 in 8.0 mi SE 6.9 mph - N/A   Overcast
4:35 AM 44.6 °F 40.7 °F 39.2 °F 81% 29.92 in 9.0 mi ESE 6.9 mph - N/A   Overcast
4:55 AM 42.8 °F 37.0 °F 39.2 °F 87% 29.92 in 9.0 mi ESE 10.4 mph - N/A   Overcast
5:15 AM 41.0 °F 38.0 °F 37.4 °F 87% 29.92 in 10.0 mi ESE 4.6 mph - N/A   Overcast
6:50 AM 42.8 °F 39.3 °F 39.2 °F 87% 29.93 in 10.0 mi ESE 5.8 mph - N/A   Overcast
7:45 AM 42.8 °F 39.3 °F 39.2 °F 87% 29.93 in 10.0 mi ESE 5.8 mph - N/A   Overcast
8:45 AM 44.6 °F 40.7 °F 39.2 °F 81% 29.93 in 10.0 mi ESE 6.9 mph - N/A   Overcast
9:45 AM 48.2 °F - 39.2 °F 71% 29.92 in 10.0 mi ESE 5.8 mph - N/A   Mostly Cloudy
10:45 AM 55.4 °F - 46.4 °F 72% 29.93 in 10.0 mi SSE 5.8 mph - N/A   Mostly Cloudy
11:45 AM 57.2 °F - 46.4 °F 67% 29.90 in 10.0 mi SE 8.1 mph - N/A   Overcast
1:15 PM 51.8 °F - 48.2 °F 88% 29.90 in 3.0 mi NNE 5.8 mph - N/A Rain Rain
1:50 PM 50.0 °F - 50.0 °F 100% 29.90 in 2.0 mi Calm Calm - N/A Rain Light Rain
2:45 PM 50.0 °F - 50.0 °F 100% 29.89 in 1.0 mi North 3.5 mph - N/A Rain Light Rain
3:45 PM 50.0 °F - 50.0 °F 100% 29.88 in 1.0 mi Calm Calm - N/A   Overcast
4:45 PM 50.0 °F - 50.0 °F 100% 29.90 in 0.5 mi Calm Calm - N/A Fog Fog
5:45 PM 50.0 °F - 50.0 °F 100% 29.93 in 2.0 mi NNW 11.5 mph 16.1 mph N/A Rain Light Rain
6:50 PM 48.2 °F - 48.2 °F 100% 29.95 in 10.0 mi NNW 12.7 mph - N/A Rain Light Rain
7:50 PM 48.2 °F - 48.2 °F 100% 29.97 in 10.0 mi NNW 12.7 mph - N/A   Overcast
7:55 PM 48.2 °F - 48.2 °F 100% 29.98 in 7.0 mi NNW 9.2 mph - N/A   Overcast
8:15 PM 48.2 °F - 48.2 °F 100% 29.99 in 5.0 mi NNW 12.7 mph - N/A   Overcast
8:35 PM 48.2 °F - 48.2 °F 100% 30.00 in 4.0 mi NNW 15.0 mph 21.9 mph N/A   Overcast
8:45 PM 48.2 °F - 48.2 °F 100% 30.00 in 4.0 mi NNW 16.1 mph 21.9 mph N/A   Overcast
8:55 PM 46.4 °F 40.7 °F 46.4 °F 100% 30.01 in 3.0 mi NNW 12.7 mph 20.7 mph N/A   Overcast
9:15 PM 46.4 °F 39.8 °F 46.4 °F 100% 30.02 in 2.5 mi NNW 16.1 mph 19.6 mph N/A Rain Light Rain
9:35 PM 46.4 °F 40.4 °F 44.6 °F 93% 30.02 in 5.0 mi North 13.8 mph - N/A   Overcast
9:55 PM 46.4 °F 41.5 °F 44.6 °F 93% 30.03 in 5.0 mi North 10.4 mph - N/A   Overcast
10:15 PM 44.6 °F 39.2 °F 44.6 °F 100% 30.04 in 5.0 mi NNW 10.4 mph - N/A   Mostly Cloudy
10:35 PM 44.6 °F 38.4 °F 41.0 °F 87% 30.04 in 10.0 mi NNW 12.7 mph - N/A   Overcast
10:55 PM 44.6 °F 40.2 °F 41.0 °F 87% 30.05 in 10.0 mi NNW 8.1 mph - N/A   Mostly Cloudy
11:15 PM 44.6 °F 38.8 °F 41.0 °F 87% 30.05 in 10.0 mi NNW 11.5 mph - N/A   Overcast
11:55 PM 42.8 °F 35.1 °F 39.2 °F 87% 30.06 in 10.0 mi NNW 16.1 mph 23.0 mph N/A   Overcast